Weather History for North Island, CA

Change the Weather History Date:

Friday, January 3, 2014

  Actual Average Record
Temperature  
Mean Temperature 64 °F -  
Max Temperature 75 °F 62 °F 80 °F (2003)
Min Temperature 53 °F 46 °F 42 °F (2000)
Degree Days  
Heating Degree Days 1    
Growing Degree Days 14 (Base 50)    
Moisture  
Dew Point 50 °F    
Average Humidity 69    
Maximum Humidity 83    
Minimum Humidity 33    
Precipitation  
Precipitation 0.00 in - - ()
Sea Level Pressure  
Sea Level Pressure 29.98 in    
Wind  
Wind Speed 2 mph (NNW)    
Max Wind Speed 9 mph    
Max Gust Speed -    
Visibility 5 miles    
Events Fog    
Averages and records for this station are not official NWS values.
T = Trace of Precipitation, MM = Missing Value Source: NWS Daily Summary

Daily Weather History Graph

Daily Weather History Graph

Search for Another Location

Airport:

Trip Planner

Search our weather history database for the weather conditions in past years. The results will help you decide how hot, cold, wet, or windy it might be!

Date:

Astronomy

Jan. 03, 2014 Rise Set
Actual Time 6:51 AM PST 4:55 PM PST
Civil Twilight 6:24 AM PST 5:22 PM PST
Nautical Twilight 5:53 AM PST 5:53 PM PST
Astronomical Twilight 5:23 AM PST 6:23 PM PST
Moon 8:30 AM PST (1/3) 7:59 PM PST (1/3)
Length of Visible Light 10h 58m
Length of Day
10h 04m
Waxing Crescent, 8% of the Moon is Illuminated
Jan 3
Waxing Crescent
Jan 7
First Quarter
Jan 15
Full
Jan 23
Last Quarter
Jan 30
New

Hourly Weather History & Observations

Time (PST) Temp. Dew Point Humidity Pressure Visibility Wind Dir Wind Speed Gust Speed Precip Events Conditions
12:52 AM 59.0 °F 54.0 °F 83% 30.01 in 0.2 mi Calm Calm - N/A Fog Fog
1:52 AM 57.0 °F 52.0 °F 83% 30.01 in 0.2 mi Calm Calm - N/A Fog Fog
2:52 AM 57.0 °F 51.1 °F 81% 30.01 in 0.2 mi Calm Calm - N/A Fog Fog
2:59 AM 57.0 °F 51.1 °F 81% 30.01 in 0.2 mi Calm Calm - N/A Fog Fog
3:52 AM 55.9 °F 48.9 °F 77% 30.00 in 0.2 mi NNE 3.5 mph - N/A Fog Fog
4:52 AM 55.9 °F 50.0 °F 80% 29.99 in 0.2 mi Calm Calm - N/A Fog Fog
5:52 AM 54.0 °F 48.9 °F 83% 30.00 in 0.2 mi Calm Calm - N/A Fog Fog
6:52 AM 54.0 °F 48.0 °F 80% 30.02 in 0.1 mi North 4.6 mph - N/A Fog Fog
7:05 AM 53.1 °F 48.0 °F 83% 30.02 in 7.0 mi North 4.6 mph - N/A   Scattered Clouds
7:52 AM 55.9 °F 46.9 °F 72% 30.02 in 7.0 mi NNE 4.6 mph - N/A   Scattered Clouds
8:52 AM 57.9 °F 48.9 °F 72% 30.03 in 7.0 mi NNW 3.5 mph - N/A   Scattered Clouds
9:52 AM 66.9 °F 45.0 °F 45% 30.02 in 10.0 mi Calm Calm - N/A   Scattered Clouds
10:52 AM 70.0 °F 46.9 °F 44% 30.00 in 8.0 mi Calm Calm - N/A   Scattered Clouds
10:56 AM 57.0 °F 51.8 °F 83% 30.02 in 1.5 mi WSW 4.6 mph - N/A   Mostly Cloudy
11:52 AM 75.0 °F 44.1 °F 33% 29.96 in 9.0 mi Calm Calm - N/A   Mostly Cloudy
12:52 PM 72.0 °F 48.9 °F 44% 29.93 in 8.0 mi NNW 4.6 mph - N/A   Mostly Cloudy
1:52 PM 71.1 °F 48.0 °F 44% 29.92 in 8.0 mi NW 3.5 mph - N/A   Mostly Cloudy
2:52 PM 73.0 °F 46.9 °F 39% 29.91 in 8.0 mi West 3.5 mph - N/A   Mostly Cloudy
3:52 PM 64.0 °F 51.1 °F 63% 29.92 in 8.0 mi WNW 9.2 mph - N/A   Mostly Cloudy
4:52 PM 62.1 °F 52.0 °F 70% 29.94 in 7.0 mi NW 6.9 mph - N/A   Mostly Cloudy
5:52 PM 62.1 °F 53.1 °F 72% 29.95 in 7.0 mi Calm Calm - N/A   Mostly Cloudy
6:52 PM 60.1 °F 51.1 °F 72% 29.96 in 7.0 mi Calm Calm - N/A   Mostly Cloudy
7:52 PM 60.1 °F 52.0 °F 75% 29.96 in 7.0 mi Calm Calm - N/A   Mostly Cloudy
8:52 PM 60.1 °F 52.0 °F 75% 29.97 in 7.0 mi Calm Calm - N/A   Mostly Cloudy
9:52 PM 60.1 °F 53.1 °F 78% 29.98 in 7.0 mi East 3.5 mph - N/A   Mostly Cloudy
10:52 PM 61.0 °F 54.0 °F 78% 29.99 in 4.0 mi Calm Calm - N/A   Mostly Cloudy
11:52 PM 60.1 °F 53.1 °F 78% 29.98 in 3.0 mi Calm Calm - N/A   Mostly Cloudy